Regional Weather Roundup
Issued by NWS Little Rock, AR

Home | Current Version | Previous Version | Text Only | Print | Product List | Glossary Off
Versions: 1 2 3 4 5 6 7 8 9 10 11 12 13 14 15 16 17 18 19 20 21 22 23 24 25 26 27 28 29 30 31 32 33 34 35 36 37 38 39 40 41 42 43 44 45 46 47 48 49 50

000
ASUS44 KLZK 191105
RWRLZK

WEATHER ROUNDUP FOR ARKANSAS
NATIONAL WEATHER SERVICE LITTLE ROCK AR
600 AM CDT SAT AUG 19 2017

NOTE: "FAIR" INDICATES FEW OR NO CLOUDS BELOW 12,000 FEET WITH NO
SIGNIFICANT WEATHER AND/OR OBSTRUCTIONS TO VISIBILITY.

ARZ001-003-010-029-191200-
NORTHWEST ARKANSAS

CITY           SKY/WX    TMP DP  RH WIND       PRES   REMARKS
FAYETTEVILLE   CLEAR     68  68 100 SW3       30.02R
FORT SMITH     CLOUDY    72  72 100 E5        29.99R
HARRISON       CLEAR     67  67 100 CALM      30.00S
BENTONVILLE    CLEAR     70  66  88 S3        30.01S
ROGERS         CLEAR     71  70  96 S8        30.02R
SILOAM SPGS    CLEAR     70  66  88 S7        30.00S
HIGHFILL       CLEAR     69  69 100 S5        30.01S
SPRINGDALE     CLEAR    N/A N/A N/A S3        30.03
$$

ARZ004-005-016-191200-
NORTH CENTRAL ARKANSAS

CITY           SKY/WX    TMP DP  RH WIND       PRES   REMARKS
BATESVILLE     CLEAR     72  66  83 NW3       29.96S
FLIPPIN        CLEAR     70  63  78 SW6       29.95S
MTN HOME       CLEAR     68  67  96 CALM      29.97S
$$

ARZ040-041-191200-
WEST CENTRAL ARKANSAS

CITY           SKY/WX    TMP DP  RH WIND       PRES   REMARKS
MENA           CLOUDY    73  72  94 CALM      30.02S VSB 1/4
MOUNT IDA      CLEAR     70  68  93 CALM      29.98F
$$

ARZ009-017-025-026-028-191200-
NORTHEAST ARKANSAS

CITY           SKY/WX    TMP DP  RH WIND       PRES   REMARKS
JONESBORO      CLEAR     75  73  93 W6        29.94S
NEWPORT        CLEAR     73  69  87 W5        29.95S
WALNUT RIDGE   CLEAR     72  70  94 SW3       29.94S
BLYTHEVILLE    CLEAR     69  68  96 N5        29.96R
$$

ARZ022-023-033-042-044-191200-
CENTRAL ARKANSAS

CITY           SKY/WX    TMP DP  RH WIND       PRES   REMARKS
LITTLE ROCK    CLEAR     71  71 100 SW6       29.98S
N LITTLE ROCK    N/A     71  69  94 CALM      29.98S
JACKSONVILLE   CLEAR     70  70 100 CALM      29.97S
CONWAY           N/A     72  70  94 SW3       29.97R
SEARCY         CLEAR     70  70 100 CALM      29.99S
HOT SPRINGS    CLEAR     72  72 100 CALM      30.00R
RUSSELLVILLE   CLEAR     69  69 100 CALM      29.98S FOG
CLINTON        FAIR      66  66 100 CALM      29.99S
$$

ARZ036-191200-
EAST ARKANSAS

CITY           SKY/WX    TMP DP  RH WIND       PRES   REMARKS
WEST MEMPHIS   CLEAR     71  71 100 CALM      29.94S
$$

ARZ050-053-066-070-073-191200-
SOUTHWEST ARKANSAS

CITY           SKY/WX    TMP DP  RH WIND       PRES   REMARKS
ARKADELPHIA    FAIR      72  71  97 CALM      29.99S
CAMDEN         PTCLDY    75  72  88 CALM      29.98S
TEXARKANA      CLEAR     77  75  93 SW6       29.99R
EL DORADO      CLEAR     77  76  96 CALM      29.99S
DE QUEEN       FOG       75  75 100 CALM      29.97S VSB 1/4
$$

ARZ056-057-069-191200-
SOUTHEAST ARKANSAS

CITY           SKY/WX    TMP DP  RH WIND       PRES   REMARKS
PINE BLUFF     CLEAR     72  70  93 CALM      29.98R
MONTICELLO     CLEAR     73  71  93 W6        29.97F

$$






USA.gov is the U.S. government's official web portal to all federal, state and local government web resources and services.